This is the latest recevied weather packets stored in our database for station/object SP2ARQ-13. If no packets are shown the sender has not sent any weather packets the latest 10 day(s).
| Time | Temp. | Humidity | Pressure | Rain* | Wind** | Luminosity | Snow |
|---|---|---|---|---|---|---|---|
| 1777258675 | 3.89° C | 51% | 1022.7 hPa | - | - | - | - |
| 1777257775 | 3.89° C | 52% | 1022.8 hPa | - | - | - | - |
| 1777256875 | 3.89° C | 54% | 1022.8 hPa | - | - | - | - |
| 1777255974 | 3.89° C | 54% | 1022.9 hPa | - | - | - | - |
| 1777255074 | 4.44° C | 52% | 1022.9 hPa | - | - | - | - |
| 1777254174 | 4.44° C | 52% | 1023 hPa | - | - | - | - |
| 1777253274 | 3.89° C | 53% | 1022.9 hPa | - | - | - | - |
| 1777252374 | 3.89° C | 52% | 1022.9 hPa | - | - | - | - |
| 1777251474 | 3.89° C | 50% | 1023.1 hPa | - | - | - | - |
| 1777250573 | 3.89° C | 49% | 1023.2 hPa | - | - | - | - |
| 1777249673 | 3.33° C | 50% | 1023.3 hPa | - | - | - | - |
| 1777248773 | 3.89° C | 49% | 1023.2 hPa | - | - | - | - |
| 1777247873 | 3.89° C | 52% | 1023.3 hPa | - | - | - | - |
| 1777246973 | 3.89° C | 51% | 1023.4 hPa | - | - | - | - |
| 1777246073 | 3.89° C | 47% | 1023.5 hPa | - | - | - | - |
| 1777245172 | 4.44° C | 47% | 1023.5 hPa | - | - | - | - |
| 1777244272 | 4.44° C | 46% | 1023.5 hPa | - | - | - | - |
| 1777243372 | 4.44° C | 46% | 1023.6 hPa | - | - | - | - |
| 1777242472 | 4.44° C | 44% | 1023.6 hPa | - | - | - | - |
| 1777241572 | 5° C | 44% | 1023.7 hPa | - | - | - | - |
| 1777240672 | 5° C | 43% | 1023.6 hPa | - | - | - | - |
| 1777239771 | 5° C | 42% | 1023.6 hPa | - | - | - | - |
| 1777238871 | 5° C | 42% | 1023.6 hPa | - | - | - | - |
| 1777237971 | 5.56° C | 41% | 1023.6 hPa | - | - | - | - |
| 1777237071 | 5.56° C | 41% | 1023.7 hPa | - | - | - | - |
* Rain since midnight (hover to see other rain measurements)
** Current wind speed in m/s (hover to see current wind gust speed)